Temperature
11 11 11 11 11 11 11 11 10 10 10 10 10 11 11 11 11 11 11 11 11 11 11 11 11 11 11 11 11 11 11 11 11 11 11 11 11 11
11 11 11 11 11 11 10 10 10 10 10 10 10 10 10 10 10 11 11 11 11 11 11 11 11 11 11 11 11 11 11 11 11 11 11 11 11 11
10 10 10 10 10 10 10 10 10 10 10 10 10 10 10 10 10 10 10 10 10 10 10 10 10 10 10 10 10 10 10 10 10 10 11 11 11 11
10 10 10 10 10 10 10 10 10 10 10 10 10 10 10 10 10 10 10 10 10 10 10 10 10 10 10 10 10 10 10 10 10 10 10 10 10 10
10 10 10 10 10 10 10 10 10 10 10 10 10 9 9 9 9 10 10 10 10 10 10 10 10 10 10 10 10 10 10 10 10 10 10 10 10 10
9 9 9 9 9 9 9 9 9 9 9 9 9 9 9 9 9 9 10 10 10 9 9 9 10 10 10 10 10 10 10 10 10 10 10 10 10 10
9 9 9 9 9 9 9 9 9 9 9 9 9 9 9 9 9 9 9 9 9 9 9 9 9 9 9 9 9 9 9 9 9 10 10 9 9 9
9 9 9 9 9 9 9 9 9 9 9 9 9 9 9 9 9 9 9 9 9 9 9 9 9 9 9 9 9 9 9 9 9 9 9 9 9 9
9 8 8 8 8 8 8 8 8 8 8 8 8 8 8 8 8 8 8 9 9 9 9 9 9 9 9 9 9 9 9 9 9 9 9 9 9 9
8 8 8 8 8 8 8 8 8 8 8 8 8 8 8 8 8 8 8 8 8 8 8 8 9 9 9 9 9 9 9 9 9 9 9 9 9 9
8 7 7 7 7 7 8 8 8 8 8 8 8 8 8 8 8 8 8 8 8 8 8 8 8 8 9 9 9 9 9 9 9 9 9 9 9 8
7 7 7 7 7 7 7 7 7 7 7 7 7 7 7 7 8 7 7 7 7 7 7 7 8 8 8 8 9 9 9 9 8 8 8 8 8 8
7 7 7 7 7 7 7 7 7 7 7 7 7 7 7 7 7 7 7 7 7 7 7 7 7 7 7 8 8 8 8 8 8 8 8 8 8 8
6 6 6 6 6 6 6 6 6 6 6 6 6 6 6 7 6 6 6 6 6 7 7 7 7 7 7 7 7 8 8 8 8 8 8 8 8 8
6 6 6 6 6 6 6 6 6 6 6 6 6 6 6 6 6 6 6 6 6 6 6 6 6 7 7 7 7 7 7 7 7 7 7 7 7 7
5 5 5 5 5 5 5 5 6 6 5 5 5 6 6 6 6 6 6 6 6 6 6 6 6 6 6 6 6 6 7 7 7 7 7 7 7 7
5 5 5 5 5 5 5 5 5 5 5 5 5 5 5 5 5 5 5 5 5 5 6 6 6 6 6 6 6 6 6 6 6 6 6 7 7 7
4 4 4 5 5 5 5 5 5 4 4 4 4 4 5 5 5 5 5 5 5 5 5 5 5 5 6 5 6 6 6 6 6 6 6 6 6 7
4 4 4 4 4 4 4 4 4 4 4 4 4 4 4 4 4 4 4 4 4 4 5 5 5 5 5 5 5 5 5 5 5 5 6 6 6 6
3 3 3 3 3 3 3 3 3 3 3 3 3 3 4 4 4 4 4 4 4 4 4 4 4 4 4 4 5 5 5 5 5 5 5 5 5 5
3 3 3 3 3 3 3 3 3 3 3 3 3 3 3 3 3 3 3 3 3 4 4 4 4 4 4 4 4 4 5 5 5 5 5 5 5 5
2 3 3 2 2 3 3 3 3 3 3 3 3 3 3 3 3 3 3 3 3 3 3 3 3 4 4 4 4 4 4 4 4 4 4 4 4 4
2 2 2 2 2 2 2 2 2 2 2 2 2 2 2 2 2 2 3 3 3 3 3 3 3 3 3 3 3 4 4 4 4 4 4 4 4 4
Wind_Speed
1 2 1 1 1 2 2 3 3 1 1 2 2 2 3 3 4 4 3 3 3 4 4 3 3 2 2 2 2 3 3 3 3 3 3 2 1 2
1 1 1 1 1 1 2 2 2 3 2 2 1 2 2 3 3 3 3 3 2 2 2 2 2 2 1 2 2 2 3 3 3 2 2 2 1 1
1 1 1 1 1 1 1 1 2 2 2 2 1 1 1 2 2 2 2 2 1 0 1 1 1 1 1 1 2 3 3 3 3 3 2 2 2 2
2 1 1 1 1 1 1 2 2 2 3 2 1 1 1 1 1 1 1 1 0 1 1 2 2 1 2 2 2 3 4 4 4 4 3 3 3 3
3 3 3 2 2 2 2 2 2 1 2 2 1 1 1 1 1 1 1 1 1 1 2 3 3 2 3 3 3 2 3 4 4 5 4 4 4 4
3 3 3 4 4 3 3 3 2 1 1 1 1 1 1 1 0 1 1 1 1 1 2 2 3 3 3 3 3 3 3 4 5 5 5 5 5 4
2 2 3 3 3 3 2 3 3 2 2 2 2 1 1 1 2 1 1 1 1 1 1 1 1 2 3 4 5 5 5 5 5 4 5 5 5 5
2 2 2 2 3 3 4 4 4 4 4 3 2 3 3 3 2 2 1 0 1 1 1 2 1 2 3 4 6 6 6 6 6 6 5 5 4 5
2 2 2 2 1 2 2 3 3 4 5 4 4 5 4 4 4 3 3 2 3 2 1 2 1 3 4 5 6 7 8 7 7 7 7 6 6 5
2 3 3 2 2 2 1 1 2 2 3 3 4 5 5 5 5 4 4 1 1 1 1 1 2 2 3 4 6 7 7 7 7 7 7 6 6 6
2 2 3 3 3 2 2 2 1 2 2 2 3 3 3 4 4 3 2 1 1 2 1 1 1 2 2 3 5 6 6 7 7 8 7 7 7 7
2 1 2 3 3 3 3 3 3 3 2 2 2 2 2 3 5 5 4 3 2 2 2 2 1 0 1 2 2 3 4 6 7 8 8 8 8 6
1 2 2 3 3 3 3 3 4 3 2 2 1 1 1 1 2 3 4 4 3 3 3 3 2 1 2 2 2 2 3 3 4 6 8 8 8 7
2 2 2 2 2 2 2 2 2 1 1 1 1 1 1 2 2 3 3 3 4 4 4 4 2 3 2 2 3 2 2 3 3 3 4 6 8 9
2 3 3 2 1 1 2 2 1 1 1 1 2 2 2 3 1 1 1 1 1 2 2 3 2 2 3 3 3 2 2 2 3 3 3 3 4 4
1 2 2 2 1 1 1 1 0 1 2 2 2 2 1 1 1 1 1 1 1 2 2 2 3 3 3 3 3 3 2 2 2 3 3 3 4 5
0 1 2 2 2 1 1 1 1 0 0 0 1 1 1 1 1 1 0 0 1 2 2 2 3 2 3 3 2 3 3 3 3 3 2 3 4 5
2 1 1 1 1 1 1 1 1 1 1 1 1 1 1 1 1 1 0 0 1 2 2 2 1 2 2 2 3 4 3 4 3 3 3 4 5 5
1 0 0 1 1 2 1 1 1 1 1 1 1 1 1 1 1 1 1 1 2 2 2 2 1 1 2 4 3 4 3 3 3 3 3 4 5 5
0 1 1 2 2 1 1 1 1 1 1 1 1 2 1 1 1 2 1 2 2 2 2 2 2 2 4 5 4 3 5 4 3 4 3 3 4 5
1 1 2 2 2 2 2 2 1 1 1 2 2 2 2 2 2 2 2 3 2 3 3 4 5 5 3 2 3 3 3 5 5 4 3 2 2 2
2 2 2 2 2 2 2 2 1 2 2 2 2 2 2 2 2 3 3 2 3 3 4 4 4 2 2 3 5 5 4 3 5 5 4 4 3 3
2 2 2 2 2 2 2 2 2 2 2 2 2 2 2 2 2 2 2 3 3 3 3 3 3 2 3 4 5 5 5 4 3 2 3 5 7 7
Wind_Direction
189 176 177 203 184 190 182 173 167 196 274 299 318 347 351 359 6 26 32 40 61 68 81 93 113 134 154 163 160 162 162 161 156 166 173 170 177 195
192 174 200 212 198 193 192 188 177 179 218 263 272 310 345 357 5 24 25 30 54 73 88 106 117 124 156 185 190 185 175 176 179 175 180 193 209 228
221 184 227 214 204 208 186 174 178 168 202 273 301 324 345 343 352 9 13 13 27 94 150 140 135 150 155 199 215 210 193 193 202 205 202 205 219 240
226 200 231 220 215 212 191 198 200 193 190 232 287 313 304 297 323 339 2 3 326 222 205 200 194 204 215 215 219 217 206 207 213 213 212 218 226 234
221 208 221 199 223 227 208 209 214 208 194 199 253 287 310 313 341 320 354 360 318 251 233 237 227 218 219 221 219 220 220 215 217 216 217 223 226 229
230 223 218 208 215 218 218 216 202 185 173 186 232 270 284 273 207 248 317 337 317 327 294 267 249 232 222 221 227 229 231 226 221 219 218 220 223 231
238 238 229 224 229 223 223 205 187 185 184 194 215 230 239 232 233 224 242 302 308 311 316 296 282 266 252 238 232 232 230 233 231 225 226 226 225 230
223 248 247 240 259 259 247 223 197 190 198 201 215 223 232 225 213 199 195 186 272 274 239 283 260 258 259 247 244 238 233 235 235 231 232 236 233 235
211 230 248 255 256 255 259 253 240 227 203 196 208 224 221 216 196 201 207 215 230 239 195 267 267 260 266 258 252 240 233 232 235 233 229 233 238 243
231 222 226 238 228 207 209 255 263 256 237 222 220 227 225 202 195 204 207 209 300 292 175 236 270 269 290 270 254 237 232 229 226 227 232 234 236 237
275 245 229 230 233 193 170 203 263 285 280 253 253 243 228 199 171 148 147 153 249 258 211 200 253 278 287 274 260 243 234 233 231 234 234 233 232 232
309 290 261 253 236 192 185 194 228 256 265 281 303 301 253 206 188 186 186 191 212 238 216 194 226 233 288 281 273 261 247 246 240 240 237 231 226 223
281 288 283 289 262 223 204 211 229 231 235 227 244 275 281 223 210 215 206 198 203 233 211 184 201 208 226 275 294 271 251 252 246 247 242 235 227 217
259 274 279 294 281 261 238 250 237 200 202 197 208 246 261 256 248 242 232 230 231 230 213 196 203 205 223 255 272 285 271 258 248 253 241 238 232 228
262 286 303 313 302 278 285 262 197 187 185 201 229 248 250 247 244 241 246 269 291 263 205 210 208 215 218 230 247 256 277 269 249 253 251 239 234 226
318 323 345 359 4 356 348 305 260 211 199 214 236 257 267 263 259 251 242 258 285 300 308 268 237 211 228 242 239 253 252 251 257 252 256 255 245 231
66 41 31 20 11 351 349 336 300 278 215 236 228 249 262 261 289 293 241 299 258 272 300 318 315 274 229 217 243 258 257 260 266 247 241 259 258 249
101 94 38 343 311 288 284 293 280 252 244 232 232 245 256 255 286 331 352 234 262 286 293 296 316 337 336 298 235 245 259 261 271 252 235 247 263 265
85 138 260 289 289 282 277 272 263 260 249 231 235 249 256 260 278 289 287 290 282 282 291 300 302 264 263 279 278 232 246 273 277 258 244 243 255 265
163 222 249 267 278 272 262 275 287 296 282 259 247 247 245 247 261 264 267 279 279 284 293 300 282 268 252 256 266 276 250 251 256 261 262 264 274 290
235 245 252 261 266 268 260 250 251 255 261 260 256 249 249 250 260 265 263 273 279 278 271 274 272 272 275 272 280 290 288 260 254 251 247 253 274 284
235 247 253 257 255 255 259 255 255 261 263 254 257 255 254 256 257 256 258 267 272 274 277 282 291 287 269 259 267 277 288 301 285 273 248 231 218 226
237 244 248 247 249 251 252 249 251 258 257 258 262 267 263 263 266 266 273 271 274 280 287 294 303 293 268 264 268 275 283 297 306 309 295 278 263 267
Height
1524 1524 1525 1525 1526 1526 1526 1526 1526 1525 1525 1525 1525 1525 1525 1524 1524 1524 1524 1524 1524 1524 1524 1525 1525 1526 1527 1528 1529 1530 1531 1531 1532 1532 1533 1533 1533 1533
1522 1523 1523 1523 1524 1524 1524 1524 1524 1524 1524 1523 1524 1524 1524 1523 1523 1523 1523 1523 1523 1523 1523 1523 1524 1525 1526 1526 1527 1528 1529 1530 1530 1531 1531 1531 1531 1531
1520 1520 1521 1521 1522 1522 1522 1522 1522 1523 1522 1522 1522 1522 1522 1522 1521 1522 1521 1521 1521 1522 1522 1522 1523 1523 1524 1525 1525 1526 1527 1528 1528 1528 1529 1529 1529 1528
1517 1518 1518 1519 1519 1520 1520 1520 1520 1520 1520 1520 1520 1520 1520 1520 1520 1520 1520 1520 1520 1520 1521 1521 1521 1522 1522 1522 1523 1524 1525 1525 1526 1526 1526 1526 1526 1526
1515 1515 1515 1516 1516 1517 1517 1517 1518 1518 1518 1518 1518 1518 1518 1518 1518 1518 1518 1518 1518 1518 1519 1519 1519 1520 1520 1521 1521 1521 1522 1523 1524 1524 1524 1524 1524 1524
1512 1512 1513 1513 1513 1514 1514 1514 1515 1515 1515 1515 1515 1515 1516 1516 1516 1516 1516 1516 1516 1516 1517 1517 1517 1517 1518 1519 1519 1519 1519 1520 1521 1521 1522 1522 1522 1522
1508 1509 1509 1510 1510 1511 1511 1511 1512 1512 1512 1512 1512 1512 1513 1513 1513 1513 1513 1513 1514 1514 1514 1514 1515 1515 1516 1516 1516 1517 1517 1517 1518 1519 1519 1519 1519 1519
1505 1505 1506 1506 1507 1507 1508 1508 1509 1509 1509 1509 1509 1509 1509 1510 1511 1511 1511 1510 1510 1512 1511 1512 1512 1512 1513 1513 1514 1514 1514 1515 1515 1515 1516 1516 1516 1517
1501 1502 1502 1503 1503 1504 1504 1504 1505 1505 1506 1506 1505 1506 1506 1507 1507 1507 1508 1508 1508 1508 1509 1508 1509 1509 1510 1510 1511 1511 1511 1512 1512 1512 1513 1513 1513 1514
1498 1499 1499 1500 1500 1500 1501 1501 1501 1501 1501 1502 1502 1502 1503 1503 1504 1504 1504 1505 1505 1505 1506 1505 1505 1506 1506 1507 1507 1508 1508 1509 1509 1509 1509 1509 1510 1510
1495 1495 1496 1496 1497 1497 1497 1497 1497 1497 1498 1498 1498 1498 1499 1500 1500 1501 1501 1501 1501 1502 1503 1502 1502 1502 1503 1503 1504 1504 1505 1505 1506 1506 1506 1506 1507 1507
1492 1492 1493 1493 1494 1494 1494 1494 1493 1494 1494 1494 1495 1495 1495 1496 1496 1496 1497 1497 1497 1498 1499 1499 1499 1500 1499 1499 1500 1501 1501 1502 1502 1502 1502 1503 1503 1503
1489 1489 1489 1489 1490 1490 1490 1490 1490 1491 1490 1491 1491 1491 1491 1492 1492 1493 1493 1494 1494 1494 1496 1496 1496 1496 1497 1496 1496 1497 1497 1497 1498 1498 1498 1499 1499 1499
1485 1486 1486 1486 1486 1486 1486 1486 1487 1487 1487 1487 1487 1487 1487 1488 1488 1489 1490 1490 1491 1492 1492 1493 1493 1493 1493 1492 1492 1492 1493 1494 1494 1494 1494 1495 1495 1495
1483 1483 1482 1482 1482 1482 1483 1483 1483 1483 1483 1483 1483 1483 1484 1485 1485 1485 1486 1486 1487 1488 1488 1488 1489 1489 1490 1489 1489 1489 1489 1489 1490 1490 1490 1491 1491 1491
1479 1479 1479 1479 1479 1479 1479 1479 1479 1479 1480 1480 1480 1480 1481 1481 1481 1481 1482 1482 1483 1483 1484 1485 1485 1485 1485 1485 1486 1485 1486 1486 1486 1486 1486 1486 1486 1486
1476 1476 1475 1475 1475 1475 1475 1475 1475 1476 1476 1476 1477 1477 1477 1477 1477 1478 1478 1478 1479 1479 1479 1480 1481 1481 1481 1481 1481 1481 1481 1481 1481 1482 1482 1481 1482 1482
1473 1472 1472 1472 1472 1471 1471 1471 1472 1472 1473 1473 1474 1474 1474 1474 1474 1475 1475 1475 1475 1475 1476 1476 1476 1476 1476 1476 1477 1476 1477 1477 1477 1477 1477 1476 1476 1477
1469 1469 1469 1469 1469 1469 1468 1469 1469 1470 1470 1470 1471 1471 1471 1471 1471 1472 1472 1472 1472 1472 1473 1473 1473 1472 1472 1471 1472 1473 1472 1472 1472 1472 1472 1472 1471 1472
1466 1466 1466 1466 1466 1466 1466 1466 1467 1467 1467 1467 1467 1468 1468 1468 1468 1468 1469 1469 1469 1469 1469 1469 1469 1469 1469 1469 1468 1468 1469 1468 1467 1467 1467 1467 1467 1468
1463 1463 1463 1463 1463 1463 1463 1464 1464 1464 1464 1464 1464 1464 1464 1465 1465 1465 1466 1466 1466 1466 1466 1466 1466 1467 1466 1466 1465 1464 1464 1465 1464 1463 1463 1462 1462 1462
1460 1460 1460 1460 1460 1460 1460 1460 1461 1461 1461 1461 1461 1461 1462 1462 1462 1462 1462 1462 1462 1463 1463 1463 1463 1463 1462 1461 1460 1460 1460 1460 1460 1460 1459 1459 1458 1458
1457 1457 1457 1457 1457 1457 1457 1457 1457 1457 1458 1458 1458 1458 1458 1459 1459 1459 1459 1459 1459 1459 1459 1459 1458 1458 1458 1457 1457 1456 1456 1455 1455 1455 1455 1455 1456 1456